Terminal Aerodrome Forecast
Issued by NWS

Home | Current Version | Previous Version | Text Only | Print | Product List | Glossary On
Versions: 1 2 3 4 5 6 7 8 9 10 11 12 13 14 15 16 17 18 19 20 21 22 23 24 25 26 27
000
FTUS44 KLIX 251100
TAFHDC
TAF
KHDC 251135Z 2512/2612 00000KT P6SM SCT250
     FM251430 24006KT P6SM SCT040
      TEMPO 2519/2523 2SM TSRA BKN028CB
     FM260100 VRB03KT P6SM FEW110 SCT250=

USA.gov is the U.S. government's official web portal to all federal, state and local government web resources and services.